Regional Weather Roundup
Issued by NWS

Home | Current Version | Previous Version | Text Only | Print | Product List | Glossary Off
Versions: 1 2 3 4 5 6 7 8 9 10 11 12 13 14 15 16 17 18 19 20 21 22 23 24 25 26 27 28 29 30 31 32 33 34 35 36 37 38 39 40 41 42 43 44 45 46 47 48 49 50

000
ASUS43 KMKX 230200
RWRWI

WISCONSIN REGIONAL WEATHER ROUNDUP
NATIONAL WEATHER SERVICE MILWAUKEE/SULLIVAN WI
900 PM CDT WED OCT 22 2014

NOTE: "FAIR" INDICATES FEW OR NO CLOUDS BELOW 12,000 FEET WITH NO
SIGNIFICANT WEATHER AND/OR OBSTRUCTIONS TO VISIBILITY.

WIZ001-002-006>008-014>016-023>028-230300-
NORTHWEST WISCONSIN

CITY           SKY/WX    TMP DP  RH WIND       PRES   REMARKS
SUPERIOR ARPT  MOCLDY    54  35  49 S3        30.06S
ASHLAND        MOCLDY    53  32  44 S8        30.09S
HAYWARD        MOCLDY    53  34  48 S12G20    30.09S
SIREN          CLOUDY    55  33  43 S13G21    30.05F
CUMBERLAND     MOCLDY    52  34  50 SE7       30.09S
RICE LAKE      CLOUDY    54  35  48 SE15      30.11F
CHETEK         CLOUDY    54  36  51 SE14      30.11F
LADYSMITH      CLOUDY    52  35  52 SE9       30.16R
EAU CLAIRE     NOT AVBL
MENOMONIE      CLOUDY    52  42  68 E8        30.12S
NEW RICHMOND   CLOUDY    54  37  53 SE12G21   30.07F
OSCEOLA        CLOUDY    55  38  54 SE12G20   30.07F
$$

WIZ003>005-009-010-017-018-230300-
NORTH CENTRAL WISCONSIN

CITY           SKY/WX    TMP DP  RH WIND       PRES   REMARKS
MANITOWISH WTR PTCLDY    46  32  58 S9        30.15S
ARBOR VITAE    PTCLDY    46  33  60 S7        30.17R
WOODRUFF       PTCLDY    46  33  60 S7        30.17R
RHINELANDER    CLEAR     42  32  67 SE6       30.19S
EAGLE RIVER    CLEAR     42  29  61 S6        30.17F
LAND O LAKES   CLEAR     44  30  59 S6        30.18S
PHILLIPS       CLOUDY    47  33  57 S8        30.15S
TOMAHAWK       CLEAR     42  32  67 CALM      30.18S
MEDFORD        CLEAR     45  35  68 SE7       30.17S
MERRILL        CLEAR     44  34  68 SE6       30.20R
$$

WIZ029-030-035-036-043>047-230300-
CENTRAL WISCONSIN

CITY           SKY/WX    TMP DP  RH WIND       PRES   REMARKS
WAUSAU         CLEAR     43  35  73 SE3       30.19S
MOSINEE        CLEAR     43  37  81 SE6       30.20F
MARSHFIELD     CLEAR     45  35  68 S7        30.18S
STEVENS POINT  CLEAR     40  33  74 SE3       30.21S
WAUPACA        CLEAR     43  38  83 E5        30.23F
WAUTOMA        NOT AVBL
WISC RAPIDS    CLEAR     45  35  68 SE8       30.21F
CAMP DOUGLAS   NOT AVBL
$$

WIZ011>013-019>022-031-037>040-048>050-230300-
NORTHEAST WISCONSIN

CITY           SKY/WX    TMP DP  RH WIND       PRES   REMARKS
ANTIGO         CLEAR     39  35  83 S8        30.21S WCI  34
SHAWANO        CLEAR     43  39  84 SE6       30.25S
OCONTO         PTCLDY    42  41  96 S6        30.26S
STURGEON BAY   CLEAR     39  34  81 S7        30.27S WCI  34
GREEN BAY      CLEAR     39  36  89 SE5       30.26S
MANITOWOC      NOT AVBL
APPLETON       PTCLDY    43  37  81 SE8       30.24F
CLINTONVILLE   CLEAR     41  37  87 SE3       30.24S
OSHKOSH        CLEAR     40  38  93 S6        30.24S
$$

WIZ032>034-041-042-053>061-230300-
SOUTHWEST WISCONSIN

CITY           SKY/WX    TMP DP  RH WIND       PRES   REMARKS
LA CROSSE      MOCLDY    55  37  50 S8        30.16F
SPARTA         CLEAR     42  34  72 CALM      30.18F
VIROQUA        CLEAR     48  36  62 SE7       30.18S
BOSCOBEL       CLEAR     38  34  85 CALM      30.21S
PRAIRIE DU CHI CLEAR     49  36  59 E6        30.19S
PLATTEVILLE    CLEAR     47  35  63 SE9       30.22S
$$

WIZ056-057-062-063-064-067-068-230300-
SOUTH CENTRAL WISCONSIN

CITY           SKY/WX    TMP DP  RH WIND       PRES   REMARKS
REEDSBURG      CLEAR     45  36  69 E5        30.20F
BARABOO/DELLS  CLEAR     42  36  76 SE5       30.22S
LONE ROCK      NOT AVBL
MINERAL POINT  CLEAR     45  34  65 SE6       30.21F
MADISON        PTCLDY    46  36  68 SE8       30.24R
MIDDLETON      CLEAR     40  37  87 CALM      30.23F
WATERTOWN      CLEAR     42  39  89 SE5       30.25R
MONROE         CLEAR     46  34  61 S8        30.23S
JANESVILLE     CLEAR     45  37  76 SE8       30.25R
$$

WIZ051-052-058>065-066-070>072-230300-
SOUTHEAST WISCONSIN

CITY           SKY/WX    TMP DP  RH WIND       PRES   REMARKS
MILWAUKEE      PTCLDY    43  36  76 SE5       30.27S
WAUKESHA       CLEAR     39  36  87 SE5       30.27S
MILWAUKEE/TIMM CLEAR     43  36  75 CALM      30.28S
RACINE         CLEAR     42  35  76 SE5       30.29S
BURLINGTON     CLEAR     38  36  91 CALM      30.26F
KENOSHA        CLEAR     38  35  89 SE6       30.27S WCI  33
FOND DU LAC    CLEAR     40  36  86 SE6       30.25S
SHEBOYGAN      CLEAR     35  32  88 CALM      30.27S
WEST BEND      CLEAR     37  36  93 CALM      30.26F
JUNEAU         CLEAR     42  38  87 SE9       30.26R FOG
$$

LSZ147-162-230300-
LAKE SUPERIOR

STATION/POSITION TIME  TEMP    WIND        PRES    WAVE
                       AIR SEA DIR/SP/G            HT/PER
                 (UTC) (F)     (DEG/KT/KT) (MB)    (FT/S)
W MID LAKE BUOY  0050   51 46  150/ 12/ 14 1019.6F   1/ 3
DEVILS ISLAND    0100   56     180/ 10/ 13 1018.8F
PORT WING        0100   55     170/  4/  6 1018.6R
SAXON HARBOR     0100   57     190/  8/ 13 1018.6S
$$

LMZ867-665-643>646-230300-
LAKE MICHIGAN

STATION/POSITION TIME  TEMP    WIND        PRES    WAVE
                       AIR SEA DIR/SP/G            HT/PER
                 (UTC) (F)     (DEG/KT/KT) (MB)    (FT/S)
CHAMBERS ISLAND  0140   41     140/  3/  6 1025.1S
N MID LAKE BUOY  0050   45 51  150/  8/ 10 1025.9F   0
NORTHPORT PIER   0100   39     170/  3/  5 1024.7F
SISTER BAY       0013          140/  5/  6   N/A
ALGOMA LAKESHORE 0056          200/ 12/ 14   N/A
KEWAUNEE LAKESHO 0100   46     160/  9/ 12 1024.0F
SHEBOYGAN LAKESH 0100   47 50  150/ 10/ 13 1025.5F
PORT WASHINGTON  0100   48     160/  9/ 11 1025.7S
ATWATER BUOY     0100   48     140/ 10/ 12 1025.8F
MILWAUKEE LAKESH 0100   47     130/ 11/ 13   N/A
S MID LAKE BUOY  0050   48 54  100/  6/  8 1025.8F   1
KENOSHA   LAKESH 0100   48     130/ 10/ 11 1024.7F
$$

TC  - TEMPERATURE IN CELSIUS
VSB - VISIBILITY IN STATUTE MILES
WCI - WIND CHILL INDEX
HX  - HEAT INDEX




USA.gov is the U.S. government's official web portal to all federal, state and local government web resources and services.